TimeCDT,TemperatureF,Dew PointF,Humidity,Sea Level PressureIn,VisibilityMPH,Wind Direction,Wind SpeedMPH,Gust SpeedMPH,PrecipitationIn,Events,Conditions,WindDirDegrees,DateUTC
12:53 AM,60.1,57.0,90,30.02,10.0,WNW,5.8,-,N/A,,Clear,300,2012-10-07 05:53:00
1:53 AM,60.1,55.9,86,30.04,10.0,NW,6.9,-,N/A,,Clear,320,2012-10-07 06:53:00
2:53 AM,59.0,55.9,90,30.03,9.0,WNW,3.5,-,N/A,,Clear,300,2012-10-07 07:53:00
3:24 AM,60.8,55.4,82,30.02,10.0,Calm,Calm,-,N/A,,Mostly Cloudy,0,2012-10-07 08:24:00
3:53 AM,60.1,55.9,86,30.02,10.0,Calm,Calm,-,N/A,,Overcast,0,2012-10-07 08:53:00
4:21 AM,60.8,55.4,82,30.02,10.0,NW,3.5,-,N/A,,Overcast,310,2012-10-07 09:21:00
4:53 AM,61.0,55.9,83,30.02,10.0,NW,5.8,-,N/A,,Overcast,310,2012-10-07 09:53:00
5:53 AM,60.1,55.9,86,30.04,10.0,WNW,6.9,-,N/A,,Overcast,300,2012-10-07 10:53:00
6:53 AM,60.1,55.9,86,30.06,10.0,WNW,4.6,-,N/A,,Overcast,300,2012-10-07 11:53:00
7:53 AM,60.1,55.9,86,30.09,10.0,WNW,6.9,-,N/A,,Overcast,290,2012-10-07 12:53:00
8:53 AM,61.0,55.9,83,30.12,10.0,NNW,9.2,-,N/A,,Overcast,330,2012-10-07 13:53:00
9:45 AM,62.6,55.4,77,30.13,10.0,NW,8.1,-,N/A,,Overcast,310,2012-10-07 14:45:00
9:53 AM,62.1,55.0,78,30.12,10.0,NNW,8.1,-,N/A,,Overcast,330,2012-10-07 14:53:00
10:53 AM,66.9,55.9,68,30.11,10.0,NW,6.9,-,N/A,,Mostly Cloudy,310,2012-10-07 15:53:00
11:19 AM,69.8,55.4,60,30.10,10.0,NNW,6.9,-,N/A,,Scattered Clouds,330,2012-10-07 16:19:00
11:53 AM,71.1,55.9,59,30.09,10.0,WNW,9.2,-,N/A,,Partly Cloudy,300,2012-10-07 16:53:00
12:53 PM,73.0,55.9,55,30.07,10.0,NNW,13.8,19.6,N/A,,Partly Cloudy,340,2012-10-07 17:53:00
1:53 PM,73.9,55.0,52,30.05,10.0,NNW,11.5,-,N/A,,Partly Cloudy,340,2012-10-07 18:53:00
2:53 PM,72.0,54.0,53,30.04,10.0,North,11.5,-,N/A,,Mostly Cloudy,350,2012-10-07 19:53:00
3:53 PM,72.0,53.1,51,30.04,10.0,North,10.4,-,N/A,,Partly Cloudy,10,2012-10-07 20:53:00
4:53 PM,69.1,52.0,54,30.05,10.0,North,9.2,-,N/A,,Partly Cloudy,360,2012-10-07 21:53:00
5:53 PM,64.0,50.0,60,30.06,10.0,North,10.4,-,N/A,,Clear,360,2012-10-07 22:53:00
6:53 PM,62.1,50.0,65,30.07,10.0,North,5.8,-,N/A,,Clear,350,2012-10-07 23:53:00
7:53 PM,60.1,48.9,67,30.09,10.0,NNW,8.1,-,N/A,,Clear,340,2012-10-08 00:53:00
8:53 PM,59.0,48.9,69,30.11,10.0,NNW,3.5,-,N/A,,Clear,340,2012-10-08 01:53:00
9:53 PM,57.9,48.9,72,30.11,10.0,Calm,Calm,-,N/A,,Clear,0,2012-10-08 02:53:00
10:53 PM,57.9,48.0,70,30.10,10.0,North,4.6,-,N/A,,Clear,350,2012-10-08 03:53:00
11:53 PM,55.9,48.0,75,30.10,10.0,NW,4.6,-,N/A,,Clear,320,2012-10-08 04:53:00